Dewpoint
-22 -22 -23 -21 -17 -12 -8 -7 -6 -5 -5 -6 -7 -5 -7 -5 -11 -7 -6 -5 -4 -4 -5 -7 -8 -8 -8 -8 -7 -8 -8 -9 -7 -6 -8 -10 -10 -11 -10 -10 -9 -9 -10 -10 -11 -10 -9 -17 -15 -12 -14 -15 -14 -13
-21 -22 -19 -18 -13 -8 -6 -5 -6 -8 -8 -9 -8 -8 -8 -7 -7 -6 -7 -7 -5 -4 -5 -7 -13 -10 -7 -9 -6 -7 -8 -8 -9 -7 -7 -7 -6 -8 -9 -7 -13 -10 -12 -9 -8 -9 -13 -12 -12 -13 -13 -13 -13 -12
-19 -15 -15 -12 -8 -5 -5 -7 -6 -6 -8 -11 -9 -9 -6 -11 -7 -8 -7 -7 -6 -4 -7 -9 -10 -10 -11 -10 -9 -7 -7 -8 -9 -9 -6 -5 -7 -9 -7 -8 -9 -11 -11 -8 -6 -10 -11 -11 -11 -11 -11 -10 -10 -10
-13 -12 -13 -10 -6 -6 -7 -7 -6 -6 -11 -9 -8 -7 -10 -6 -6 -7 -7 -9 -7 -5 -5 -8 -10 -13 -11 -11 -10 -10 -9 -9 -8 -8 -7 -5 -6 -9 -8 -8 -6 -7 -7 -6 -6 -8 -9 -11 -11 -11 -11 -11 -11 -11
-14 -13 -10 -7 -6 -6 -8 -9 -10 -7 -9 -12 -14 -12 -10 -7 -7 -8 -11 -10 -6 -5 -6 -7 -12 -10 -11 -9 -9 -11 -9 -8 -8 -7 -7 -7 -9 -8 -9 -8 -5 -7 -7 -7 -8 -10 -11 -12 -12 -12 -12 -12 -12 -11
-16 -14 -8 -5 -5 -8 -11 -6 -8 -10 -13 -12 -12 -13 -13 -8 -6 -7 -7 -6 -8 -7 -6 -7 -9 -13 -9 -12 -11 -10 -11 -12 -11 -9 -8 -8 -9 -7 -5 -6 -8 -11 -11 -11 -11 -11 -12 -11 -12 -12 -12 -12 -13 -13
-19 -16 -10 -8 -9 -9 -10 -8 -10 -12 -12 -13 -20 -21 -18 -16 -8 -5 -8 -6 -6 -7 -6 -7 -8 -9 -10 -10 -11 -14 -15 -14 -14 -13 -10 -9 -8 -5 -5 -8 -10 -10 -10 -11 -12 -12 -12 -12 -11 -12 -12 -12 -12 -12
-18 -14 -10 -9 -9 -11 -9 -8 -10 -13 -17 -19 -19 -20 -18 -18 -14 -6 -5 -6 -6 -7 -9 -8 -8 -11 -10 -10 -12 -14 -13 -13 -12 -11 -7 -6 -6 -11 -8 -10 -10 -10 -10 -12 -11 -11 -11 -12 -12 -12 -11 -11 -11 -12
-15 -12 -7 -9 -10 -11 -9 -10 -13 -16 -17 -21 -23 -21 -17 -15 -6 -7 -10 -10 -9 -9 -7 -7 -8 -8 -11 -11 -13 -13 -12 -9 -11 -6 -5 -6 -8 -8 -9 -9 -10 -10 -11 -11 -11 -12 -12 -11 -10 -10 -9 -8 -9 -10
-10 -6 -7 -9 -11 -11 -12 -13 -10 -13 -21 -19 -16 -17 -10 -13 -10 -8 -7 -7 -8 -7 -7 -7 -10 -9 -11 -11 -11 -11 -11 -8 -6 -6 -5 -7 -8 -11 -11 -10 -11 -11 -12 -12 -12 -12 -12 -11 -10 -10 -8 -9 -8 -8
-11 -8 -9 -10 -11 -12 -13 -8 -9 -16 -17 -12 -11 -10 -9 -9 -8 -9 -8 -9 -10 -8 -7 -8 -10 -8 -10 -10 -9 -10 -8 -8 -7 -6 -7 -8 -9 -11 -11 -11 -12 -12 -12 -12 -12 -12 -11 -11 -11 -10 -9 -8 -8 -9
-11 -10 -10 -10 -11 -11 -9 -9 -15 -15 -10 -9 -8 -7 -9 -9 -9 -9 -12 -10 -10 -10 -9 -7 -8 -8 -9 -10 -8 -10 -8 -8 -6 -7 -10 -9 -10 -11 -11 -12 -13 -12 -13 -13 -12 -12 -11 -11 -11 -11 -11 -10 -9 -8
-12 -9 -8 -9 -10 -10 -13 -17 -12 -11 -12 -13 -7 -8 -10 -9 -12 -12 -12 -12 -10 -8 -9 -8 -9 -11 -10 -9 -9 -9 -9 -6 -8 -9 -7 -9 -11 -11 -12 -13 -14 -12 -12 -12 -12 -12 -12 -12 -12 -12 -11 -11 -10 -10
-9 -8 -10 -11 -12 -16 -17 -11 -12 -12 -11 -8 -9 -12 -11 -11 -10 -10 -10 -9 -9 -10 -9 -11 -12 -10 -10 -10 -10 -9 -9 -7 -10 -10 -9 -11 -11 -12 -13 -13 -14 -13 -13 -13 -13 -12 -12 -12 -12 -12 -12 -11 -11 -11
-8 -10 -11 -14 -15 -14 -12 -10 -12 -10 -8 -8 -8 -11 -11 -9 -10 -10 -10 -10 -9 -10 -12 -12 -12 -12 -11 -11 -10 -9 -8 -9 -9 -9 -10 -10 -12 -13 -14 -14 -14 -13 -13 -13 -13 -12 -12 -12 -12 -12 -12 -11 -11 -10
-9 -12 -14 -13 -13 -12 -12 -12 -9 -8 -8 -8 -8 -9 -8 -9 -9 -9 -10 -10 -11 -13 -12 -12 -11 -12 -11 -10 -9 -10 -9 -9 -10 -11 -11 -11 -13 -14 -14 -14 -14 -14 -13 -13 -13 -13 -12 -12 -13 -12 -12 -12 -11 -11
-12 -13 -13 -12 -14 -15 -15 -11 -8 -9 -8 -8 -8 -8 -9 -9 -9 -9 -10 -11 -12 -12 -12 -11 -11 -11 -11 -11 -11 -11 -11 -11 -12 -12 -12 -12 -13 -14 -14 -14 -14 -14 -14 -13 -13 -13 -12 -12 -12 -12 -13 -12 -12 -12
-12 -14 -12 -14 -15 -14 -12 -10 -9 -9 -9 -8 -9 -8 -10 -10 -9 -10 -11 -12 -12 -12 -11 -12 -12 -12 -11 -11 -11 -12 -12 -13 -13 -12 -12 -12 -13 -14 -14 -14 -14 -14 -14 -14 -13 -13 -13 -13 -13 -13 -13 -13 -12 -12
-10 -12 -11 -12 -14 -12 -11 -9 -10 -9 -9 -10 -11 -11 -10 -9 -10 -11 -12 -12 -12 -12 -12 -12 -12 -13 -12 -12 -13 -13 -14 -13 -13 -13 -12 -13 -14 -14 -14 -14 -14 -14 -14 -14 -14 -14 -13 -13 -13 -13 -13 -13 -13 -13
-10 -13 -11 -12 -13 -12 -11 -9 -10 -10 -10 -10 -12 -10 -10 -10 -10 -11 -11 -13 -12 -12 -13 -14 -13 -13 -14 -14 -14 -14 -14 -14 -13 -14 -13 -14 -14 -14 -14 -14 -14 -14 -14 -14 -14 -14 -14 -14 -14 -14 -14 -14 -14 -14
-12 -13 -11 -13 -13 -12 -12 -9 -9 -11 -12 -12 -10 -11 -10 -10 -11 -11 -12 -13 -14 -15 -13 -14 -14 -14 -14 -14 -14 -13 -13 -13 -14 -14 -14 -14 -14 -14 -15 -15 -15 -14 -14 -14 -14 -14 -14 -14 -14 -14 -14 -14 -14 -14
-11 -12 -12 -13 -12 -10 -9 -10 -10 -11 -12 -13 -13 -12 -11 -11 -11 -11 -12 -13 -14 -14 -14 -14 -14 -14 -13 -13 -13 -13 -13 -14 -14 -14 -14 -15 -15 -15 -15 -15 -15 -14 -14 -14 -14 -14 -14 -14 -14 -14 -14 -14 -14 -14
-11 -13 -12 -11 -10 -10 -12 -13 -14 -14 -12 -12 -13 -11 -11 -11 -12 -12 -12 -13 -13 -14 -14 -14 -13 -13 -13 -13 -13 -13 -14 -15 -15 -15 -15 -15 -15 -15 -15 -15 -15 -15 -14 -14 -14 -14 -14 -14 -14 -14 -14 -14 -14 -14
-13 -13 -12 -10 -11 -12 -13 -14 -14 -14 -13 -12 -14 -16 -13 -12 -13 -12 -16 -12 -13 -13 -13 -13 -13 -13 -13 -13 -13 -14 -15 -15 -15 -15 -15 -15 -15 -15 -15 -15 -15 -14 -14 -14 -14 -14 -14 -14 -14 -14 -14 -14 -14 -14
-12 -12 -12 -12 -13 -14 -13 -13 -13 -13 -15 -14 -16 -17 -13 -13 -16 -17 -16 -13 -13 -13 -13 -13 -13 -13 -13 -13 -13 -15 -15 -15 -16 -15 -16 -16 -16 -16 -15 -15 -15 -14 -14 -14 -14 -14 -14 -14 -14 -14 -14 -14 -14 -14
-12 -12 -13 -13 -14 -15 -15 -15 -16 -16 -15 -16 -16 -14 -14 -13 -17 -17 -14 -13 -14 -14 -13 -13 -13 -13 -13 -13 -15 -16 -16 -16 -16 -16 -16 -16 -16 -16 -16 -15 -15 -15 -14 -14 -14 -14 -14 -14 -14 -14 -14 -14 -14 -14
-13 -13 -12 -13 -14 -14 -13 -14 -14 -14 -17 -17 -16 -15 -17 -16 -17 -14 -15 -15 -14 -14 -13 -13 -13 -13 -14 -16 -16 -16 -16 -16 -16 -16 -16 -16 -16 -16 -16 -16 -15 -15 -15 -14 -14 -14 -14 -14 -14 -14 -14 -14 -14 -14
-10 -11 -14 -13 -13 -13 -13 -13 -15 -17 -14 -14 -14 -16 -16 -16 -15 -15 -15 -15 -15 -14 -14 -13 -13 -13 -15 -16 -15 -15 -15 -15 -16 -16 -16 -16 -16 -16 -16 -16 -15 -15 -15 -14 -14 -14 -14 -14 -14 -14 -14 -14 -14 -14
-11 -12 -12 -13 -13 -13 -13 -13 -13 -13 -14 -14 -14 -14 -15 -15 -15 -15 -15 -16 -15 -14 -14 -14 -13 -13 -13 -13 -14 -14 -15 -16 -16 -16 -16 -17 -17 -17 -16 -16 -15 -15 -14 -14 -14 -14 -14 -14 -14 -14 -14 -14 -14 -14
-12 -12 -13 -13 -14 -16 -13 -13 -13 -14 -14 -14 -14 -14 -14 -14 -14 -15 -14 -14 -15 -15 -14 -14 -14 -14 -13 -13 -14 -15 -16 -16 -17 -17 -17 -17 -17 -17 -17 -16 -16 -15 -14 -14 -14 -14 -14 -14 -14 -14 -14 -14 -14 -14
-13 -13 -13 -13 -14 -14 -14 -14 -14 -14 -14 -15 -15 -15 -15 -15 -15 -16 -16 -16 -16 -15 -15 -14 -14 -14 -14 -14 -14 -15 -16 -16 -17 -17 -17 -17 -17 -17 -17 -16 -15 -15 -14 -14 -14 -14 -14 -14 -14 -14 -14 -14 -14 -14
-14 -14 -14 -15 -14 -15 -15 -15 -15 -16 -16 -16 -16 -16 -16 -16 -16 -15 -16 -16 -16 -15 -15 -15 -15 -15 -14 -14 -14 -15 -16 -16 -17 -17 -17 -17 -17 -17 -17 -16 -15 -14 -14 -14 -14 -14 -14 -14 -14 -14 -14 -14 -14 -14
-15 -15 -15 -15 -15 -16 -16 -16 -16 -16 -16 -17 -17 -17 -17 -16 -16 -16 -15 -15 -16 -16 -15 -15 -15 -15 -15 -15 -15 -15 -16 -17 -17 -18 -18 -18 -18 -17 -16 -16 -15 -14 -14 -14 -14 -14 -14 -14 -14 -14 -14 -14 -14 -14
Wind_Speed
4 5 6 7 8 7 9 11 12 13 14 14 15 16 17 17 17 16 16 12 11 8 19 7 14 20 21 18 7 16 10 3 2 3 3 5 3 4 5 6 8 7 6 9 8 14 23 15 18 5 12 27 33 28
4 4 6 8 8 7 8 11 13 13 14 16 17 16 17 18 16 15 17 15 17 17 26 28 22 18 16 16 24 14 11 19 6 2 3 3 8 6 11 11 7 8 8 9 7 8 22 30 30 38 39 30 33 33
3 3 6 6 5 8 10 11 14 15 17 17 15 15 17 18 15 14 20 19 18 14 24 7 20 18 12 16 18 16 16 14 16 16 7 3 4 4 8 8 11 8 17 8 9 14 22 29 31 31 29 28 29 37
4 5 5 6 8 10 12 13 15 17 18 16 16 18 18 17 17 17 20 20 17 11 6 13 15 32 20 15 20 20 25 26 24 23 14 4 5 8 4 7 10 13 15 9 11 15 26 20 24 36 36 34 36 37
5 5 6 7 9 12 14 15 16 15 16 17 18 18 18 18 18 20 22 15 12 11 5 14 30 6 8 16 11 11 15 20 20 13 5 6 13 9 8 7 1 8 5 4 9 25 26 31 36 39 39 42 39 35
7 7 7 9 12 14 14 13 14 16 17 18 19 19 20 20 19 20 7 2 4 4 8 3 10 25 7 12 9 9 12 20 21 19 8 8 14 8 3 1 11 26 24 23 23 35 33 36 40 37 39 42 48 49
7 8 9 10 11 12 13 14 15 16 18 19 20 19 21 22 19 11 6 13 19 18 5 7 6 4 13 11 12 17 23 22 20 19 7 14 16 6 0 4 26 32 30 34 30 35 38 35 44 43 44 45 43 43
7 7 7 7 10 11 12 13 15 17 19 19 19 20 22 21 5 2 2 3 7 9 5 2 4 5 10 7 10 25 25 22 6 7 3 2 3 7 2 23 31 33 34 31 35 35 39 42 42 47 45 41 40 38
5 5 5 7 10 11 12 14 15 17 19 22 23 18 12 3 2 13 28 17 7 8 3 3 2 3 13 11 15 11 5 3 4 2 3 4 2 4 10 24 28 32 30 38 43 40 38 41 42 44 41 41 38 34
5 6 7 9 10 11 12 13 16 19 21 21 15 7 3 5 27 6 4 3 2 2 3 4 9 2 12 16 5 7 5 2 2 2 2 3 3 13 25 25 28 35 37 40 42 45 47 43 42 45 32 31 18 18
6 6 7 8 9 10 10 13 17 20 21 17 10 4 15 18 4 3 3 4 4 2 2 4 9 6 13 4 3 4 3 3 3 3 2 2 2 18 31 33 38 39 39 40 39 40 39 37 40 39 38 30 20 16
6 4 6 8 9 10 11 14 17 18 18 17 15 16 9 4 3 3 1 3 1 3 7 7 10 8 7 5 4 6 2 3 2 9 3 2 6 26 32 35 40 39 39 40 41 42 41 39 39 37 37 36 34 23
3 4 6 8 8 11 14 14 16 18 18 14 3 4 4 3 6 4 4 4 3 10 8 11 9 9 5 3 4 1 3 2 11 3 2 3 18 28 33 37 37 36 36 37 40 39 40 39 39 38 39 35 35 38
3 5 7 8 10 12 14 15 18 18 9 3 3 5 2 3 1 1 1 2 7 10 12 13 9 4 4 3 3 2 3 4 3 4 3 4 21 29 32 31 32 35 34 36 38 37 39 41 40 38 36 35 36 37
4 5 7 9 11 13 14 14 16 14 2 2 2 2 1 1 3 5 7 7 9 14 15 9 5 2 3 2 2 3 3 3 4 3 3 17 28 29 30 30 30 30 32 32 34 34 34 36 38 38 37 36 37 37
4 6 5 9 12 13 14 16 16 12 3 3 2 2 3 4 1 5 8 10 11 11 4 2 2 2 3 2 1 3 4 3 3 4 17 17 27 27 27 26 26 26 27 28 30 31 30 33 34 33 34 36 36 36
4 4 8 11 13 16 17 12 4 3 3 2 2 5 6 6 5 6 9 9 10 3 2 3 2 1 6 3 2 3 2 2 12 16 16 16 24 24 24 23 24 26 25 27 28 28 29 28 30 33 36 33 32 33
5 6 8 11 15 17 12 3 3 3 3 5 3 1 4 4 6 6 6 9 3 2 3 2 3 2 2 3 2 3 5 12 11 14 14 18 21 21 22 22 22 23 24 23 27 26 28 28 31 32 29 30 30 31
7 7 10 12 14 12 4 2 2 2 3 4 5 6 4 5 8 6 6 6 1 2 3 1 0 1 1 3 3 7 9 10 15 15 12 16 20 20 20 21 20 22 23 23 24 26 26 26 25 26 27 27 29 29
8 9 10 11 12 5 3 3 3 3 2 3 5 4 4 5 6 6 5 4 2 1 0 0 1 1 1 4 6 7 8 9 11 13 14 16 18 19 20 20 20 20 22 21 23 22 25 27 26 26 25 24 27 26
10 8 10 12 9 4 4 3 3 3 5 3 5 5 3 4 4 3 3 3 1 2 2 2 3 3 3 3 3 4 6 8 9 8 12 15 16 16 17 18 19 21 22 22 23 24 23 25 25 23 23 23 22 23
9 10 13 11 4 3 3 3 3 5 4 4 5 3 3 3 2 2 3 2 2 3 3 4 3 2 1 3 4 5 6 7 8 8 8 10 14 16 16 18 20 21 21 21 20 21 21 21 21 21 21 20 20 21
9 9 6 3 2 2 2 3 2 2 2 2 4 2 2 2 2 4 2 3 3 4 4 4 3 2 0 2 4 5 5 6 7 9 10 10 10 13 14 15 17 21 20 18 17 18 19 18 19 19 19 19 19 21
7 3 3 2 3 2 2 2 2 2 3 2 2 4 2 2 3 1 2 2 4 4 4 4 4 3 2 3 4 4 5 5 6 7 9 11 12 12 13 14 15 17 18 16 16 16 17 18 18 19 19 19 20 21
3 3 3 3 3 2 1 1 1 1 2 1 2 3 1 3 1 1 2 2 4 5 4 4 4 4 5 5 4 4 5 6 6 7 8 9 11 11 11 12 14 16 17 14 15 16 17 16 17 18 18 18 19 19
2 3 4 3 3 3 3 1 3 3 1 1 4 2 2 2 2 4 2 4 6 6 5 4 4 3 3 3 2 2 4 5 6 6 7 9 11 12 14 16 15 15 15 16 15 15 15 15 15 15 15 16 16 16
2 4 5 5 3 2 2 3 3 2 2 4 2 1 2 1 4 2 3 4 5 5 5 5 5 5 3 2 1 2 4 5 6 6 6 7 9 11 13 15 16 15 14 15 14 12 13 14 14 14 14 14 15 16
7 3 3 4 4 4 2 2 3 4 4 4 4 2 4 6 3 2 3 4 5 6 6 6 6 6 5 4 3 4 5 6 6 6 6 7 9 9 11 12 13 13 14 13 12 10 11 11 11 11 12 12 13 14
4 3 5 4 4 4 6 5 3 3 3 5 3 3 4 4 4 6 8 7 7 8 8 7 7 6 6 4 3 4 5 5 5 5 6 6 7 9 10 12 12 13 12 10 9 9 9 9 9 9 10 10 11 12
3 7 4 3 4 4 4 7 5 5 6 8 6 7 9 13 14 14 14 13 11 10 9 8 7 6 5 4 4 4 5 5 5 5 6 6 8 9 11 11 11 12 11 8 6 6 6 7 7 8 8 9 10 11
3 8 3 4 4 4 6 8 9 10 10 9 11 13 13 9 11 11 11 12 12 11 10 9 8 7 5 5 5 5 6 6 6 7 7 8 9 10 10 10 11 11 9 6 5 5 5 6 6 6 7 8 9 10
5 6 3 2 3 4 4 3 3 3 3 3 3 5 4 4 4 4 4 6 11 11 10 10 8 8 7 7 7 8 8 8 8 8 8 8 8 9 10 9 9 8 6 4 3 4 4 5 4 5 6 7 8 9
3 5 5 3 2 1 2 2 2 3 3 3 3 3 5 4 4 4 4 4 8 10 10 9 9 8 8 8 8 8 8 8 8 8 9 9 9 9 9 9 8 6 4 2 3 3 3 3 3 4 5 6 7 8
Wind_Direction
271 295 311 328 342 356 4 3 356 347 339 336 337 335 339 336 333 326 324 319 297 278 298 298 295 300 304 298 293 302 329 339 249 249 277 297 293 301 314 314 314 300 295 290 286 287 286 300 323 307 306 306 299 308
274 294 322 327 345 357 348 341 328 330 330 326 332 332 333 328 336 323 317 315 308 279 284 302 303 300 290 291 271 277 256 289 293 327 311 311 292 291 274 283 278 271 269 275 269 266 292 293 288 294 301 297 299 304
272 307 325 343 336 333 319 324 331 327 331 331 328 326 323 329 325 320 312 318 313 298 310 307 307 305 295 281 283 264 275 271 285 289 304 278 271 310 285 285 286 293 289 281 295 274 276 291 296 296 300 302 303 302
253 294 314 309 311 312 316 316 314 316 325 325 322 322 324 325 323 318 311 312 300 281 268 296 308 308 311 284 269 262 270 279 280 287 286 265 261 247 267 283 291 292 298 320 287 294 320 298 300 303 305 303 301 298
280 286 300 309 317 317 316 316 319 322 324 323 324 326 325 322 320 315 313 313 293 259 290 303 318 337 304 312 283 282 274 277 279 281 252 265 273 273 272 270 38 352 348 316 295 303 293 296 302 302 298 294 294 294
283 285 294 293 298 312 318 322 320 325 327 327 326 326 323 318 319 322 320 339 323 305 314 310 288 302 330 336 307 309 291 283 276 262 260 260 261 291 264 278 13 347 332 320 309 304 302 305 305 302 295 291 289 288
291 285 282 291 302 312 318 318 324 327 327 329 329 326 320 312 302 278 260 300 303 310 294 312 289 282 336 354 332 322 312 302 289 287 247 263 282 272 350 22 335 332 328 320 318 318 311 310 302 301 293 289 286 281
290 291 294 301 307 314 316 318 323 325 329 330 329 324 313 313 329 47 285 284 310 311 274 267 277 303 13 344 317 320 303 303 274 244 296 241 45 21 37 339 332 334 331 328 326 322 310 310 310 305 300 293 282 276
294 292 294 303 311 314 316 319 324 330 334 333 331 324 315 11 31 308 307 300 303 220 266 275 285 303 350 332 318 314 299 334 295 242 215 110 65 47 343 334 334 337 334 331 330 331 328 324 319 316 311 303 277 271
289 275 284 302 315 318 320 327 331 335 336 337 344 334 336 334 319 332 19 42 12 224 242 271 333 331 335 337 299 307 320 286 308 337 72 85 113 23 357 346 344 344 343 342 337 336 334 336 335 335 332 348 337 283
293 276 290 310 316 318 322 325 326 333 340 350 335 307 306 325 349 16 27 33 336 282 252 288 337 327 326 325 287 300 315 293 290 351 69 69 58 358 352 351 354 354 353 352 349 345 346 349 352 356 4 6 352 336
313 275 299 309 315 323 321 318 325 332 338 322 302 294 306 341 20 40 351 332 341 285 334 343 318 319 306 303 300 316 293 302 278 318 53 46 13 353 351 349 354 358 360 2 2 359 359 5 12 14 22 24 28 33
273 287 302 309 314 311 316 322 327 328 328 329 343 305 329 358 30 68 340 318 333 333 336 335 335 321 304 308 289 312 294 299 319 24 53 53 353 350 351 353 354 1 7 11 9 14 13 13 23 29 30 41 49 48
268 300 306 308 310 316 318 319 320 328 338 317 331 327 107 320 224 52 350 305 298 299 321 343 317 300 332 320 295 294 272 326 28 27 33 2 353 346 350 355 358 360 7 12 12 18 22 19 22 34 42 45 51 56
288 303 305 306 316 320 323 319 322 335 269 277 276 260 256 329 309 313 329 329 321 313 324 332 315 330 299 308 253 294 330 41 33 29 0 338 344 349 353 358 1 3 7 14 16 20 26 29 28 33 44 49 55 59
284 300 297 313 325 329 326 319 307 316 242 219 239 290 247 303 177 350 336 331 319 339 3 320 293 311 269 261 286 19 347 43 24 343 330 333 346 351 356 1 4 6 9 15 20 23 27 34 32 37 45 48 50 55
294 295 317 325 330 328 323 321 276 252 223 249 262 257 267 286 288 318 320 322 332 3 348 320 318 318 289 338 58 12 30 2 331 332 338 333 349 351 357 3 8 10 12 18 23 25 28 35 39 40 40 40 48 52
300 308 317 329 332 334 318 301 232 245 261 244 257 266 272 297 294 304 311 329 352 330 334 15 323 323 349 343 49 25 349 331 336 344 348 339 345 354 2 6 12 15 17 24 29 29 32 32 40 36 37 42 44 47
288 303 316 328 333 328 289 294 290 273 267 273 276 293 290 293 291 305 325 344 321 283 297 336 324 293 32 38 350 335 333 338 334 351 354 344 347 359 4 12 19 23 23 27 33 32 38 34 38 39 38 38 44 41
290 295 307 318 326 308 283 277 279 274 287 291 295 307 292 293 276 298 318 338 256 237 126 63 47 79 264 286 299 305 321 333 342 345 346 357 356 3 10 13 20 24 27 34 37 34 39 40 36 37 38 39 40 39
285 296 305 315 314 260 263 273 265 279 290 273 276 310 284 277 279 283 299 327 239 180 180 218 222 260 290 306 327 340 338 341 347 345 343 347 358 4 13 20 24 26 29 30 35 35 36 36 28 31 35 37 40 42
282 300 307 311 257 256 266 254 270 289 279 290 306 287 275 279 269 264 301 267 232 226 202 199 217 215 338 348 351 355 359 0 2 4 1 1 9 14 18 18 22 25 27 28 33 32 30 31 30 32 36 37 39 43
297 305 297 255 261 262 272 284 276 279 299 298 313 289 250 276 274 312 260 238 242 228 210 198 199 197 240 352 352 359 4 9 18 20 17 15 15 15 19 21 22 21 24 30 35 34 32 32 33 32 37 37 38 41
289 272 258 246 231 267 277 264 269 295 304 310 333 305 306 291 312 261 257 235 236 214 202 199 198 211 277 323 331 346 355 358 2 6 12 17 19 19 18 18 22 24 22 21 27 31 33 31 29 30 31 35 34 36
256 237 228 241 225 209 270 261 273 277 267 262 13 305 306 320 357 291 235 223 228 213 218 219 222 231 244 268 293 321 334 341 346 352 1 6 12 17 22 21 17 18 17 19 27 25 27 26 25 25 27 32 34 32
223 222 211 218 188 176 204 197 210 222 191 290 236 279 321 342 24 253 230 231 235 222 225 227 227 230 234 237 267 321 347 351 352 353 358 359 359 2 8 10 12 18 15 15 15 15 21 20 20 22 25 29 29 30
236 251 225 218 201 199 226 234 224 220 217 213 234 175 74 8 257 241 253 251 232 224 228 233 230 222 214 217 272 325 344 352 350 348 345 353 359 358 360 3 5 5 10 11 5 5 11 12 14 17 20 21 23 25
230 237 195 198 194 213 227 229 199 218 225 200 170 198 192 201 243 255 275 281 240 231 229 227 227 224 232 252 275 299 316 325 340 340 339 344 349 348 353 353 351 355 355 353 358 360 3 5 8 12 15 17 20 21
223 214 190 192 200 222 224 217 243 223 215 194 196 236 240 235 255 291 296 285 258 239 233 229 228 232 236 247 271 298 311 313 317 331 336 330 335 340 345 346 345 346 348 348 346 349 355 0 4 9 12 15 18 19
219 191 198 198 201 234 221 217 233 243 236 231 244 262 273 279 286 285 278 263 253 240 232 227 224 229 242 257 278 293 303 308 311 319 325 326 333 338 340 340 339 342 341 336 337 345 353 357 1 5 9 13 16 18
204 189 210 219 251 244 253 259 260 264 263 260 257 258 267 283 292 282 261 247 239 230 226 223 225 229 240 260 279 291 300 302 309 307 310 318 324 326 329 331 333 336 334 327 334 348 354 359 3 6 10 13 16 20
193 196 210 250 256 274 277 249 258 259 266 257 265 247 272 272 270 271 281 244 222 217 217 223 230 242 255 273 285 293 297 296 298 303 304 309 314 318 319 316 325 336 339 331 334 344 350 354 358 3 9 14 19 21
206 208 220 262 262 258 249 256 274 280 253 261 255 256 242 257 259 266 281 237 212 214 224 235 245 255 264 273 280 285 289 292 297 299 305 311 322 328 329 322 325 326 322 319 332 342 347 351 357 5 13 17 21 23
Height
1567 1567 1567 1566 1565 1565 1565 1564 1563 1561 1559 1556 1554 1552 1550 1548 1546 1544 1541 1539 1539 1533 1528 1527 1527 1526 1521 1520 1517 1512 1513 1507 1505 1506 1499 1494 1493 1489 1490 1487 1488 1487 1484 1480 1473 1472 1467 1453 1452 1456 1454 1449 1445 1442
1566 1566 1565 1565 1564 1564 1564 1563 1561 1559 1557 1555 1553 1551 1549 1546 1544 1542 1539 1537 1536 1533 1528 1525 1520 1521 1519 1515 1514 1512 1511 1507 1506 1505 1501 1498 1496 1493 1490 1487 1478 1481 1476 1474 1475 1464 1454 1453 1452 1446 1444 1441 1437 1435
1564 1564 1564 1564 1564 1563 1562 1561 1559 1558 1555 1552 1550 1549 1547 1544 1542 1540 1536 1533 1530 1526 1521 1516 1515 1516 1515 1512 1510 1509 1505 1505 1503 1502 1500 1495 1496 1489 1487 1479 1474 1472 1469 1466 1468 1454 1449 1446 1445 1443 1440 1436 1431 1428
1563 1563 1563 1563 1563 1562 1561 1559 1558 1556 1552 1550 1548 1546 1543 1541 1538 1536 1533 1529 1528 1523 1518 1514 1512 1510 1507 1505 1504 1503 1501 1500 1500 1499 1497 1494 1490 1483 1479 1477 1476 1472 1467 1464 1456 1450 1448 1443 1441 1439 1433 1429 1424 1421
1560 1561 1562 1562 1561 1560 1559 1557 1555 1553 1550 1547 1545 1542 1540 1538 1536 1532 1529 1526 1525 1527 1516 1511 1506 1505 1503 1501 1500 1499 1499 1498 1496 1495 1492 1488 1483 1481 1474 1473 1470 1477 1475 1470 1461 1457 1451 1439 1437 1435 1429 1420 1415 1411
1559 1560 1560 1560 1559 1557 1556 1554 1552 1550 1548 1545 1542 1540 1537 1536 1534 1530 1528 1527 1526 1525 1519 1513 1505 1502 1500 1500 1499 1498 1497 1493 1491 1488 1484 1481 1479 1479 1473 1468 1475 1474 1473 1469 1459 1452 1444 1434 1429 1426 1418 1412 1405 1400
1557 1557 1558 1558 1557 1556 1554 1553 1550 1548 1545 1542 1539 1536 1532 1529 1528 1529 1530 1527 1524 1524 1520 1513 1505 1502 1500 1499 1498 1495 1492 1488 1485 1481 1475 1476 1474 1474 1471 1479 1477 1472 1467 1460 1453 1443 1432 1429 1415 1412 1405 1397 1393 1387
1554 1555 1555 1555 1555 1553 1552 1550 1547 1544 1541 1537 1533 1530 1525 1522 1519 1520 1520 1521 1522 1524 1519 1515 1508 1502 1502 1500 1496 1491 1485 1480 1477 1475 1475 1474 1476 1476 1480 1483 1475 1469 1461 1454 1446 1441 1431 1418 1408 1395 1389 1382 1376 1372
1553 1553 1553 1553 1553 1551 1549 1547 1544 1541 1539 1535 1531 1525 1523 1522 1522 1522 1517 1513 1515 1523 1517 1514 1512 1509 1502 1500 1495 1488 1483 1480 1476 1474 1472 1475 1480 1489 1491 1483 1475 1467 1460 1449 1438 1431 1422 1412 1398 1386 1373 1363 1357 1356
1552 1552 1552 1552 1550 1549 1547 1545 1543 1540 1536 1531 1526 1524 1520 1522 1521 1519 1515 1516 1517 1517 1516 1514 1509 1510 1507 1502 1496 1492 1485 1483 1479 1473 1471 1476 1487 1491 1489 1484 1476 1467 1458 1449 1435 1420 1411 1403 1392 1378 1368 1358 1349 1349
1550 1551 1551 1550 1549 1547 1545 1543 1540 1538 1536 1531 1529 1525 1521 1519 1518 1517 1516 1518 1518 1517 1515 1513 1511 1509 1506 1504 1500 1495 1492 1486 1483 1473 1473 1478 1488 1490 1485 1479 1473 1465 1458 1449 1441 1431 1419 1409 1395 1382 1370 1361 1354 1351
1548 1548 1549 1548 1547 1546 1545 1542 1540 1537 1534 1533 1532 1526 1523 1519 1517 1519 1522 1521 1519 1519 1515 1514 1512 1510 1507 1503 1501 1496 1493 1488 1479 1477 1481 1487 1493 1491 1485 1478 1471 1464 1456 1447 1439 1429 1420 1410 1400 1389 1378 1368 1361 1354
1547 1547 1547 1546 1545 1544 1543 1541 1539 1536 1533 1528 1530 1529 1525 1523 1526 1528 1534 1528 1524 1520 1517 1515 1513 1512 1507 1505 1503 1500 1498 1487 1483 1487 1488 1497 1497 1492 1486 1478 1471 1465 1457 1449 1440 1432 1423 1415 1405 1395 1386 1377 1370 1363
1546 1546 1545 1544 1543 1543 1542 1539 1536 1535 1531 1529 1531 1531 1528 1527 1526 1526 1527 1526 1525 1521 1518 1516 1514 1511 1508 1506 1503 1503 1494 1490 1494 1498 1498 1500 1497 1493 1487 1482 1475 1467 1460 1452 1444 1436 1428 1420 1412 1404 1395 1388 1380 1373
1544 1544 1545 1544 1543 1541 1539 1537 1534 1534 1533 1531 1531 1532 1528 1526 1526 1525 1525 1524 1523 1520 1517 1514 1513 1512 1510 1508 1504 1501 1496 1500 1499 1503 1505 1502 1499 1493 1487 1482 1476 1470 1463 1456 1449 1442 1434 1427 1420 1413 1405 1398 1391 1386
1543 1545 1543 1543 1541 1539 1537 1533 1531 1533 1531 1530 1529 1528 1526 1526 1525 1525 1524 1523 1520 1518 1516 1516 1514 1514 1511 1507 1503 1506 1505 1507 1508 1510 1507 1503 1499 1494 1489 1484 1479 1473 1467 1460 1454 1448 1441 1434 1429 1423 1416 1408 1403 1398
1543 1544 1543 1541 1539 1536 1533 1531 1531 1531 1529 1527 1526 1525 1526 1525 1525 1524 1523 1521 1519 1518 1517 1516 1517 1515 1511 1509 1510 1511 1514 1514 1513 1510 1507 1503 1499 1494 1490 1485 1480 1474 1469 1463 1457 1452 1447 1441 1435 1428 1422 1419 1415 1410
1542 1542 1541 1540 1538 1534 1531 1529 1529 1528 1526 1525 1525 1525 1524 1524 1524 1523 1521 1520 1519 1518 1517 1517 1517 1516 1515 1515 1513 1517 1515 1514 1512 1509 1507 1503 1499 1495 1490 1486 1481 1477 1472 1466 1461 1457 1451 1446 1439 1436 1433 1428 1424 1419
1540 1540 1540 1538 1537 1535 1532 1530 1529 1527 1525 1524 1523 1523 1522 1523 1522 1521 1519 1518 1518 1518 1517 1517 1517 1518 1516 1517 1517 1516 1515 1514 1511 1508 1507 1503 1499 1495 1491 1487 1483 1478 1474 1469 1465 1461 1457 1454 1449 1444 1441 1437 1432 1428
1537 1537 1538 1537 1536 1534 1531 1530 1528 1526 1525 1524 1523 1522 1521 1522 1520 1519 1518 1517 1517 1517 1517 1517 1517 1517 1517 1517 1516 1515 1514 1513 1510 1507 1505 1502 1499 1496 1492 1489 1485 1481 1477 1473 1469 1466 1462 1458 1454 1450 1447 1443 1439 1436
1536 1536 1536 1535 1533 1532 1530 1528 1527 1526 1524 1523 1522 1521 1520 1520 1519 1518 1517 1516 1516 1515 1516 1516 1516 1516 1516 1516 1515 1514 1513 1511 1509 1508 1506 1502 1500 1497 1494 1491 1488 1484 1480 1476 1472 1470 1466 1463 1461 1458 1453 1450 1446 1443
1534 1534 1532 1531 1530 1529 1528 1527 1527 1526 1525 1522 1521 1520 1519 1518 1517 1517 1516 1515 1515 1514 1514 1515 1515 1515 1515 1515 1514 1514 1512 1511 1509 1508 1506 1504 1501 1498 1495 1493 1489 1486 1483 1480 1476 1474 1471 1469 1466 1463 1459 1457 1453 1449
1532 1531 1530 1529 1529 1528 1529 1527 1526 1524 1523 1522 1521 1519 1518 1517 1517 1516 1515 1514 1513 1513 1513 1514 1514 1514 1515 1515 1514 1513 1512 1511 1510 1508 1507 1505 1503 1500 1498 1495 1492 1489 1486 1483 1481 1478 1475 1473 1470 1467 1464 1461 1458 1455
1530 1530 1529 1528 1528 1527 1527 1526 1525 1524 1523 1522 1521 1521 1518 1517 1516 1515 1514 1512 1512 1512 1512 1513 1513 1514 1514 1514 1514 1513 1512 1511 1510 1509 1507 1505 1503 1501 1499 1496 1494 1491 1488 1486 1483 1481 1478 1476 1474 1471 1468 1465 1462 1459
1531 1530 1529 1526 1526 1526 1525 1525 1524 1524 1525 1522 1523 1520 1518 1517 1517 1517 1514 1511 1510 1511 1511 1511 1512 1512 1513 1513 1513 1512 1512 1511 1509 1508 1507 1505 1504 1502 1500 1498 1495 1492 1490 1488 1485 1483 1480 1478 1476 1474 1471 1469 1466 1464
1528 1525 1526 1523 1523 1525 1523 1526 1525 1524 1522 1523 1521 1519 1518 1518 1521 1519 1510 1509 1509 1510 1510 1510 1510 1511 1511 1511 1512 1512 1511 1510 1509 1508 1507 1505 1503 1502 1500 1497 1495 1494 1491 1489 1486 1485 1482 1480 1478 1477 1475 1472 1470 1468
1526 1522 1521 1521 1521 1521 1522 1521 1521 1521 1522 1522 1518 1519 1519 1523 1521 1510 1509 1508 1508 1508 1509 1509 1509 1510 1510 1511 1511 1511 1510 1509 1509 1508 1507 1505 1504 1502 1500 1498 1496 1495 1492 1490 1488 1486 1484 1482 1480 1478 1476 1474 1472 1470
1519 1518 1519 1520 1519 1520 1520 1520 1519 1519 1516 1516 1517 1519 1520 1516 1512 1509 1508 1507 1507 1507 1508 1508 1508 1509 1509 1510 1509 1509 1509 1509 1508 1507 1506 1505 1503 1502 1501 1499 1497 1495 1493 1491 1489 1487 1485 1484 1482 1480 1478 1476 1474 1473
1515 1516 1517 1517 1518 1518 1517 1516 1514 1514 1513 1514 1514 1512 1510 1508 1507 1507 1506 1506 1505 1505 1506 1506 1507 1508 1508 1508 1508 1508 1508 1507 1507 1506 1505 1505 1503 1502 1500 1498 1496 1495 1493 1491 1489 1488 1486 1485 1483 1482 1480 1479 1477 1475
1514 1514 1515 1515 1515 1514 1512 1512 1511 1511 1511 1511 1511 1509 1507 1505 1504 1503 1502 1502 1503 1503 1504 1505 1506 1506 1507 1507 1507 1507 1507 1506 1505 1505 1504 1504 1503 1501 1499 1497 1496 1494 1492 1491 1489 1488 1487 1486 1484 1483 1482 1480 1479 1477
1512 1513 1513 1513 1511 1510 1509 1509 1509 1508 1508 1507 1506 1506 1504 1503 1500 1498 1498 1498 1499 1500 1502 1503 1504 1504 1505 1505 1506 1505 1505 1505 1504 1503 1503 1502 1501 1499 1498 1496 1495 1493 1492 1490 1489 1488 1487 1486 1485 1484 1483 1482 1480 1478
1510 1511 1511 1510 1509 1508 1508 1507 1507 1506 1504 1504 1503 1502 1501 1500 1498 1496 1495 1494 1495 1497 1499 1500 1502 1503 1503 1503 1503 1503 1503 1502 1501 1501 1500 1500 1499 1498 1497 1495 1494 1492 1491 1490 1489 1488 1487 1487 1486 1485 1484 1483 1482 1480
1509 1510 1509 1509 1508 1507 1507 1507 1506 1504 1503 1502 1501 1500 1500 1499 1497 1495 1494 1493 1494 1496 1497 1498 1499 1500 1500 1501 1501 1501 1500 1500 1499 1498 1498 1497 1496 1495 1494 1493 1492 1491 1490 1490 1489 1489 1488 1487 1487 1486 1485 1484 1483 1481